This demonstration page uses our WeatherBlox Daily Observations layout. Learn more.

Left ArrowRight Arrow

40.92945, -100.16068

Hourly Observations for September 1, 2019

Temp ( °F °C ) Dew Point ( °F °C ) Humidity (%) Winds ( mph kmh ) Pressure ( in mb ) Visibility ( mi km ) Precip ( " mm )
12:15 am 00:15 Clear 61 16.3 61 16 98 98 S 3 6 30.11 1020 10 16 0.00 0.00
12:35 am 00:35 Clear 61 16.1 61 15.9 99 99 S 5 7 30.12 1020 10 16 0.00 0.00
12:55 am 00:55 Clear 61 16.2 61 16 99 99 SSE 5 7 30.11 1020 10 16 0.00 0.00
1:15 am 01:15 Clear 61 16.3 61 16.1 99 99 S 7 11 30.10 1019 10 16 0.00 0.00
1:35 am 01:35 Clear 61 16.2 61 16.1 99 99 S 6 9 30.10 1019 10 16 0.00 0.00
1:55 am 01:55 Clear 61 16.2 61 16 99 99 SSE 6 9 30.09 1019 10 16 0.00 0.00
2:15 am 02:15 Partly Cloudy 62 16.5 61 16.2 98 98 S 5 7 30.09 1019 10 16 0.00 0.00
2:35 am 02:35 Mostly Cloudy 62 16.7 62 16.5 99 99 S 5 7 30.09 1019 10 16 0.00 0.00
2:55 am 02:55 Partly Cloudy 62 16.6 62 16.5 99 99 SSE 5 7 30.09 1019 10 16 0.00 0.00
3:15 am 03:15 Partly Cloudy 62 16.5 61 16.3 99 99 S 5 7 30.08 1019 10 16 0.00 0.00
3:35 am 03:35 Mostly Cloudy 62 16.6 62 16.6 100 100 S 3 6 30.08 1019 10 16 0.00 0.00
3:55 am 03:55 Cloudy 63 17.4 63 17.2 99 99 S 7 11 30.06 1018 10 16 0.00 0.00
4:15 am 04:15 Cloudy 64 17.5 64 17.5 100 100 S 6 9 30.06 1018 7 11 0.00 0.00
4:35 am 04:35 Cloudy 64 17.6 64 17.6 100 100 SSW 9 15 30.06 1018 7 11 0.00 0.00
4:55 am 04:55 Cloudy with Mist and Fog 64 17.6 64 17.6 100 100 SSW 9 15 30.05 1018 5 8 0.00 0.00
5:15 am 05:15 Cloudy with Mist and Fog 64 17.5 64 17.5 100 100 SSW 9 15 30.05 1018 5 8 0.00 0.00
5:35 am 05:35 Cloudy with Mist and Fog 64 17.6 64 17.6 100 100 SW 9 15 30.05 1018 5 8 0.00 0.00
5:55 am 05:55 Cloudy with Mist and Fog 64 17.7 64 17.7 100 100 SW 8 13 30.05 1018 2 3 0.00 0.00
6:15 am 06:15 Cloudy with Mist and Fog 64 18 64 18 100 100 SW 8 13 30.05 1018 2 3 0.00 0.00
6:35 am 06:35 Cloudy with Mist and Fog 65 18.2 65 18.2 100 100 SW 5 7 30.06 1018 3 5 0.00 0.00
6:55 am 06:55 Cloudy with Mist and Fog 65 18.5 65 18.5 100 100 SW 3 6 30.05 1018 5 8 0.00 0.00
7:15 am 07:15 Cloudy with Mist and Fog 65 18.6 65 18.5 99 99 SW 6 9 30.05 1018 5 8 0.00 0.00
7:35 am 07:35 Cloudy with Mist and Fog 66 18.7 65 18.6 99 99 SW 10 17 30.05 1018 5 8 0.00 0.00
7:55 am 07:55 Cloudy with Mist and Fog 66 18.7 65 18.6 99 99 SW 8 13 30.05 1018 4 6 0.00 0.00
8:15 am 08:15 Cloudy with Mist and Fog 66 18.7 66 18.7 100 100 SSW 7 11 30.05 1018 3 5 0.00 0.00
8:35 am 08:35 Cloudy with Mist and Fog 66 19 66 18.8 99 99 SSW 5 7 30.05 1018 4 6 0.00 0.00
8:55 am 08:55 Cloudy with Mist and Fog 66 19 66 18.8 99 99 SSW 5 7 30.05 1018 4 6 0.00 0.00
9:15 am 09:15 Cloudy with Mist and Fog 66 19 66 18.9 99 99 SSW 7 11 30.05 1018 5 8 0.00 0.00
9:35 am 09:35 Cloudy with Mist and Fog 67 19.2 66 18.8 98 98 SW 6 9 30.05 1018 5 8 0.00 0.00
9:55 am 09:55 Cloudy with Mist and Fog 67 19.4 66 18.9 97 97 SSW 7 11 30.06 1018 5 8 0.00 0.00
10:15 am 10:15 Cloudy 67 19.6 66 19.1 97 97 S 6 9 30.05 1017 7 11 0.00 0.00
10:35 am 10:35 Cloudy 68 20.1 67 19.3 95 95 S 7 11 30.05 1018 7 11 0.00 0.00
10:55 am 10:55 Cloudy 69 20.3 67 19.5 95 95 S 7 11 30.04 1017 10 16 0.00 0.00
11:15 am 11:15 Cloudy 70 21 67 19.6 92 92 SSW 8 13 30.03 1017 10 16 0.00 0.00
11:35 am 11:35 Cloudy 71 21.4 68 19.8 91 91 S 5 7 30.03 1017 10 16 0.00 0.00
11:55 am 11:55 Cloudy 71 21.9 68 20.1 90 90 S 5 7 30.02 1016 10 16 0.00 0.00
12:15 pm 12:15 Cloudy 73 23 69 20.6 86 86 S 8 13 30.00 1016 10 16 0.00 0.00
12:35 pm 12:35 Mostly Cloudy 74 23.4 69 20.7 85 85 SSE 5 7 29.99 1016 10 16 0.00 0.00
12:55 pm 12:55 Mostly Cloudy 75 23.7 70 21.1 85 85 SSE 7 11 29.99 1016 10 16 0.00 0.00
1:15 pm 13:15 Mostly Cloudy 76 24.5 71 21.4 83 83 SSE 7 11 29.97 1015 10 16 0.00 0.00
1:35 pm 13:35 Partly Cloudy 77 24.9 71 21.5 81 81 SSE 8 13 29.96 1015 10 16 0.00 0.00
1:55 pm 13:55 Partly Cloudy 79 25.9 72 22.3 81 81 SE 9 15 29.94 1014 10 16 0.00 0.00
2:15 pm 14:15 Mostly Cloudy 79 26.2 72 22.3 79 79 SSE 12 19 29.93 1014 10 16 0.00 0.00
2:35 pm 14:35 Mostly Cloudy 80 26.7 73 22.6 78 78 SSE 15 24 29.93 1013 10 16 0.00 0.00
2:55 pm 14:55 Cloudy 80 26.6 72 22.4 78 78 SSE 15 24 29.93 1013 10 16 0.00 0.00
3:15 pm 15:15 Mostly Cloudy 80 26.7 72 22.2 76 76 SSE 16 26 29.92 1013 10 16 0.00 0.00
3:35 pm 15:35 Mostly Cloudy 81 27.2 72 22.2 74 74 SE 15 24 29.90 1013 10 16 0.00 0.00
3:55 pm 15:55 Mostly Cloudy 82 27.5 72 22.3 73 73 SSE 14 22 29.90 1012 10 16 0.00 0.00
4:15 pm 16:15 Mostly Cloudy 82 27.8 72 22.1 71 71 SSE 15 24 29.89 1012 10 16 0.00 0.00
4:35 pm 16:35 Mostly Cloudy 82 27.6 71 21.6 70 70 SSE 16 26 29.89 1012 10 16 0.00 0.00
4:55 pm 16:55 Partly Cloudy 83 28.2 72 22.3 70 70 SSE 16 26 29.88 1012 10 16 0.00 0.00
5:15 pm 17:15 Partly Cloudy 82 27.7 71 21.5 69 69 SSE 13 20 29.89 1012 10 16 0.00 0.00
5:35 pm 17:35 Partly Cloudy 82 27.5 71 21.5 70 70 S 15 24 29.88 1012 10 16 0.00 0.00
5:55 pm 17:55 Sunny 81 27 70 21.3 71 71 SSE 18 30 29.88 1012 10 16 0.00 0.00
6:15 pm 18:15 Partly Cloudy 80 26.7 70 21.3 72 72 SSE 17 28 29.89 1012 10 16 0.00 0.00
6:35 pm 18:35 Partly Cloudy 79 26.1 70 21.2 74 74 SSE 15 24 29.90 1013 10 16 0.00 0.00
6:55 pm 18:55 Partly Cloudy 78 25.5 70 21.1 77 77 S 16 26 29.91 1013 10 16 0.00 0.00
7:15 pm 19:15 Partly Cloudy 77 25 70 21.3 80 80 SSE 13 20 29.91 1013 10 16 0.00 0.00
7:35 pm 19:35 Partly Cloudy 76 24.6 70 21.2 81 81 SSE 10 17 29.91 1013 10 16 0.00 0.00
7:55 pm 19:55 Partly Cloudy 75 24 70 21.1 84 84 SE 8 13 29.92 1013 10 16 0.00 0.00
8:15 pm 20:15 Mostly Cloudy 74 23.6 70 21.1 86 86 SE 8 13 29.92 1013 10 16 0.00 0.00
8:35 pm 20:35 Partly Cloudy 73 22.7 70 21 90 90 ESE 8 13 29.93 1014 10 16 0.00 0.00
8:55 pm 20:55 Clear 73 22.5 70 21.1 92 92 SE 9 15 29.92 1013 10 16 0.00 0.00
9:15 pm 21:15 Clear 72 22.1 70 21 94 94 SE 9 15 29.93 1014 10 16 0.00 0.00
9:35 pm 21:35 Clear 72 22 70 21 94 94 ESE 6 9 29.95 1014 10 16 0.00 0.00
9:55 pm 21:55 Clear 71 21.9 69 20.8 94 94 SE 6 9 29.97 1015 10 16 0.00 0.00
10:15 pm 22:15 Clear 70 21.2 69 20.6 96 96 ESE 6 9 29.97 1015 7 11 0.00 0.00
10:35 pm 22:35 Clear 70 21.2 69 20.5 96 96 SE 6 9 29.98 1015 7 11 0.00 0.00
10:55 pm 22:55 Clear 69 20.7 69 20.3 98 98 ESE 7 11 29.99 1015 7 11 0.00 0.00
11:15 pm 23:15 Clear 69 20.7 69 20.3 98 98 ESE 6 9 29.99 1015 7 11 0.00 0.00
11:35 pm 23:35 Clear 69 20.7 69 20.3 98 98 SE 7 11 29.99 1015 7 11 0.00 0.00
11:55 pm 23:55 Clear 69 20.7 69 20.3 98 98 SE 6 9 29.99 1015 7 11 0.00 0.00

Powered by AerisWeather